Vorticity
12 16 7 15 7 9 3 5 29 17 3 15 3 3 2 2 1 1 1 1 2 4
8 5 21 10 5 5 9 18 -7 8 12 9 3 2 2 2 1 1 1 0 2 5
10 11 10 3 10 17 1 12 14 16 11 3 3 2 2 2 2 2 0 3 3 8
4 13 7 21 4 10 23 -5 18 10 5 3 2 2 2 2 1 3 1 4 7 7
9 12 27 -19 29 5 14 14 11 7 4 3 2 2 2 2 2 -1 4 8 9 8
11 12 -5 24 -12 34 1 13 9 6 4 2 2 2 1 1 3 1 10 10 8 9
11 6 12 25 -4 2 15 13 6 5 2 2 2 -0 3 1 3 10 9 9 10 12
11 2 17 0 9 5 18 5 9 4 4 1 -5 5 -1 6 10 7 11 10 12 9
6 12 13 11 7 13 19 4 7 5 -4 0 10 -0 6 12 10 11 11 11 9 7
9 -7 36 11 -3 24 3 5 -11 -10 9 5 4 10 7 14 9 11 10 8 7 8
26 31 10 6 -0 12 9 -5 21 9 3 6 12 9 12 10 11 9 6 7 9 10
17 -8 -1 4 4 13 16 11 4 6 15 6 15 9 11 10 6 7 8 9 10 10
11 20 12 12 9 6 6 11 14 6 15 7 11 11 7 6 7 9 8 9 10 11
11 5 4 6 8 14 8 10 10 8 11 10 8 7 8 8 7 7 9 10 10 14
Height
3047 3057 3060 3063 3065 3067 3069 3071 3072 3073 3077 3079 3080 3081 3081 3080 3080 3078 3076 3073 3070 3067
3043 3050 3053 3056 3058 3061 3063 3064 3066 3069 3071 3073 3074 3075 3074 3074 3073 3071 3069 3066 3063 3059
3038 3042 3046 3049 3051 3054 3057 3059 3061 3062 3065 3067 3068 3069 3068 3068 3066 3064 3061 3058 3054 3049
3031 3034 3039 3042 3046 3049 3051 3053 3055 3057 3060 3062 3063 3063 3063 3061 3059 3057 3054 3049 3045 3040
3023 3029 3033 3037 3040 3043 3046 3047 3049 3052 3054 3056 3057 3057 3056 3054 3052 3049 3045 3040 3035 3030
3018 3023 3028 3031 3035 3038 3040 3042 3044 3047 3049 3051 3051 3050 3049 3047 3044 3040 3035 3030 3025 3019
3014 3018 3022 3026 3030 3033 3036 3038 3040 3042 3044 3044 3044 3043 3041 3039 3035 3031 3026 3021 3015 3009
3009 3013 3017 3021 3025 3026 3030 3034 3036 3037 3038 3037 3036 3034 3033 3030 3025 3021 3016 3011 3005 2999
3005 3009 3011 3015 3019 3022 3026 3028 3031 3032 3032 3031 3030 3027 3024 3020 3015 3011 3006 3001 2995 2989
2999 3002 3004 3008 3011 3017 3020 3023 3025 3025 3025 3024 3023 3018 3015 3010 3006 3001 2996 2990 2984 2978
2995 2990 2993 3004 3009 3015 3017 3018 3019 3020 3019 3016 3015 3009 3005 3001 2996 2991 2985 2980 2973 2967
2990 2994 2998 3004 3009 3011 3013 3014 3015 3013 3011 3008 3004 3000 2995 2991 2986 2981 2976 2970 2964 2958
2990 2997 3002 3006 3007 3009 3010 3010 3008 3006 3003 2999 2994 2990 2987 2982 2977 2973 2967 2962 2956 2948
2992 2995 3002 3003 3004 3004 3004 3002 3000 2997 2993 2990 2986 2982 2978 2974 2968 2962 2956 2951 2945 2939